Find Starlink 4750

NORAD ID: 53841 Int'l Des: 2022-114 Owner: SPXS Country: US Constellation: starlink operational
LEOCIRCULAR

リアルタイム位置

3D地球を読み込み中...

Starlink 4750について

説明を読み込み中...

次回通過

Passes for default location (London). Set your location on the main map for personalized predictions.

高度履歴

Loading altitude history...

軌道要素

1 53841U 22114Z 26127.73507054 .00000964 00000-0 78669-4 0 9999
2 53841 53.2196 29.1816 0001334 91.5590 268.5555 15.08827151201889
Epoch: May 7, 2026 • Age: 7 hours

現在のステータス

高度 543.9 km
速度 7.60 km/s
衛星直下点 46.28°N, 76.67°W
打ち上げ日 Sep 19, 2022
運用期間 3.6 years
タイプ internet

技術仕様

分類 Payload
質量 305.00 kg
乾燥質量 290.00 kg
総質量 305.00 kg
長さ 0.20 m
直径 2.80 m
スパン 9.00 m
形状 Box + pan
製造者 SPXS
バスタイプ Starlink
フェーズステータス In Orbit
所有者/国 SPXS/US

Most Searched